Location: Boiro
(42.6475°N, 8.8834°W)
Time: 03:35:28
(UTC+02:00)

ZACube-1 - Visible Passes

Search period start: 18 August 2022 00:00
Search period end: 28 August 2022 00:00
Orbit: 581 x 661 km, 97.6° (Epoch: 17 August)

Date Brightness Start Highest point End Pass type
(mag) Time Alt. Az. Time Alt. Az. Time Alt. Az.
18 Aug ? 05:38:11 10° NE 05:41:42 24° E 05:45:07 10° SSE visible
18 Aug ? 07:14:07 10° N 07:17:51 29° WNW 07:21:30 10° SW visible
19 Aug ? 05:55:30 10° NNE 05:59:29 37° E 06:03:22 10° SSE visible
20 Aug ? 06:12:59 10° NNE 06:17:13 59° E 06:21:20 10° S visible
21 Aug ? 06:30:38 10° NNE 06:34:55 86° W 06:39:04 10° SSW visible
22 Aug ? 05:14:02 10° ENE 05:16:01 13° E 05:17:58 10° ESE visible
22 Aug ? 06:48:23 10° N 06:52:33 54° WNW 06:56:36 10° SSW visible
23 Aug ? 05:30:43 10° NE 05:33:51 20° E 05:36:57 10° SE visible
23 Aug ? 07:06:17 10° N 07:10:08 34° WNW 07:13:54 10° SW visible
24 Aug ? 05:47:53 10° NNE 05:51:39 31° E 05:55:20 10° SSE visible
25 Aug ? 06:05:18 10° NNE 06:09:24 48° E 06:13:07 12° S visible
26 Aug ? 06:22:52 10° NNE 06:27:05 79° E 06:30:53 12° S visible
27 Aug ? 05:07:17 10° ENE 05:08:06 10° E 05:08:54 10° E visible
27 Aug ? 06:40:34 10° N 06:44:44 65° WNW 06:48:38 11° SSW visible
